Tracking 28766 objects as of 13-Apr-2024
HD Live streaming from Space Station
objects crossing your sky now

SL-8 DEB

Track SL-8 DEB now!
10-day predictions


NORAD ID: 1392
Int'l Code: 1965-020AH
Perigee: 484.0 km
Apogee: 881.3 km
Inclination: 55.9 °
Period: 98.3 minutes
Semi major axis: 7053 km
RCS: 0.2042 m2 (medium)
Launch date: March 15, 1965
Source: Commonwealth of Independent States (former USSR) (CIS)
Launch site: TYURATAM MISSILE AND SPACE COMPLEX (TTMTR)

Note: This is SATELLITE DEBRIS
Your satellite tracking list
Your tracking list is empty




NASA's NSSDC Master Catalog

Two Line Element Set (TLE):
1 01392U 65020AH  24103.64135470  .00027665  00000-0  28177-2 0  9991
2 01392  55.8758 243.5677 0281660 187.0104 172.6927 14.65480101977448
Source of the keplerian elements: AFSPC